weather.gov     
National Weather Service

METAR Formatted Surface Weather Observation
NWS Homepage
This page is being discontinued on March 12, 2014.
The same data is available at this site. Please update your bookmarks.
Thank you, and we apologize for the inconvenience.
Please send an email to SR-SRH.Webmaster@noaa.gov with any concerns.


Current Version
Previous Version:    01  02  03  04  05  06  07  08  09  10  11  12  13  14  15  16  17  18  19  20  21  22  23  24  25  26  27  28  29  30  
   31  32  33  34  35  36  37  38  39  40  41  42  43  44  45  46  47  48  49  50  51  52  53  54  55  56  57  58  59  60  
[Printable]
996
SAUS45 KSLC 210020
MTRU16
METAR KU16 202358Z AUTO 22019G28KT 10SM CLR 29/04 A2986
RMK AO2 PK WND 20028/2356 SLP741 T02940044 10311 20261 56017 $
08/20/14 18:08:26  SPECI KU16 210008Z AUTO 22021G28KT 10SM TS CLR 29/02
A2987 RMK AO2 PK WND 22028/0007 TSB05 $




U.S. Dept. of Commerce
NOAA National Weather Service
1325 East West Highway
Silver Spring, MD 20910
E-mail: w-nws.webmaster@noaa.gov
Page last modified: May 16, 2007
NATIONAL WEATHER SERVICE: for Safety, for Work, for Fun - FOR LIFE